| time (UTC) | temp C | wind direction | speed KPH | gust KPH | rain 1hr cm | rain 24hr cm | rain mn cm | humidity % | barometer mb |
| 20260507114555 | 11 | 0.0 | 0.0 | 0.00 | 0.20 | 0.00 | 70 | 1016.1 | |
| 20260507113037 | 11 | 0.0 | 0.0 | 0.00 | 0.20 | 0.00 | 71 | 1016.0 | |
| 20260507111532 | 11 | 0.0 | 0.0 | 0.00 | 0.20 | 0.00 | 73 | 1015.9 | |
| 20260507110037 | 11 | 0.0 | 0.0 | 0.00 | 0.20 | 0.00 | 75 | 1015.9 | |
| 20260507104523 | 11 | 0.0 | 0.0 | 0.00 | 0.23 | 0.00 | 76 | 1015.8 | |
| 20260507103019 | 10 | 0.0 | 0.0 | 0.00 | 0.23 | 0.00 | 77 | 1015.8 | |
| 20260507101515 | 10 | 0.0 | 0.0 | 0.00 | 0.23 | 0.00 | 78 | 1015.7 | |
| 20260507100010 | 10 | 0.0 | 0.0 | 0.00 | 0.23 | 0.00 | 79 | 1015.5 | |
| 20260507094505 | 10 | 0.0 | 0.0 | 0.00 | 0.38 | 0.00 | 81 | 1015.5 | |
| 20260507093001 | 10 | 0.0 | 0.0 | 0.00 | 0.38 | 0.00 | 83 | 1015.4 | |
| 20260507091557 | 10 | 0.0 | 0.0 | 0.00 | 0.38 | 0.00 | 85 | 1015.3 | |
| 20260507090052 | 9 | 0.0 | 0.0 | 0.00 | 0.38 | 0.00 | 87 | 1015.2 | |
| 20260507084549 | 9 | 0.0 | 0.0 | 0.00 | 0.53 | 0.00 | 87 | 1015.0 | |
| 20260507083044 | 8 | 0.0 | 0.0 | 0.00 | 0.53 | 0.00 | 88 | 1014.8 | |
| 20260507081541 | 8 | 0.0 | 0.0 | 0.00 | 0.53 | 0.00 | 88 | 1014.7 | |
| 20260507080035 | 8 | 0.0 | 0.0 | 0.00 | 0.53 | 0.00 | 89 | 1014.5 | |
| 20260507074531 | 8 | 0.0 | 0.0 | 0.00 | 0.69 | 0.00 | 89 | 1014.4 | |
| 20260507073026 | 8 | 0.0 | 0.0 | 0.00 | 0.69 | 0.00 | 89 | 1014.3 | |
| 20260507071524 | 8 | 0.0 | 0.0 | 0.00 | 0.69 | 0.00 | 89 | 1014.3 | |
| 20260507070027 | 8 | 0.0 | 0.0 | 0.00 | 0.69 | 0.00 | 89 | 1014.2 | |
| 20260507064515 | 8 | 0.0 | 0.0 | 0.00 | 0.79 | 0.00 | 89 | 1014.1 | |
| 20260507063009 | 8 | 0.0 | 0.0 | 0.00 | 0.79 | 0.00 | 89 | 1013.9 | |
| 20260507061504 | 8 | 0.0 | 0.0 | 0.00 | 0.79 | 0.00 | 89 | 1013.6 | |
| 20260507060100 | 8 | 0.0 | 0.0 | 0.00 | 0.79 | 0.00 | 89 | 1013.4 | |
| 20260507054556 | 8 | 0.0 | 0.0 | 0.00 | 0.86 | 0.00 | 88 | 1013.2 | |
| 20260507053053 | 8 | 0.0 | 0.0 | 0.00 | 0.86 | 0.00 | 88 | 1013.0 | |
| 20260507051547 | 8 | 0.0 | 0.0 | 0.00 | 0.86 | 0.00 | 88 | 1012.9 | |
| 20260507050042 | 8 | 0.0 | 0.0 | 0.00 | 0.86 | 0.00 | 88 | 1012.8 | |
| 20260507044549 | 8 | 0.0 | 0.0 | 0.00 | 0.97 | 0.00 | 88 | 1012.7 | |
| 20260507043033 | 7 | 0.0 | 0.0 | 0.00 | 0.97 | 0.00 | 87 | 1012.5 | |
| 20260507041529 | 7 | 0.0 | 0.0 | 0.00 | 0.97 | 0.00 | 87 | 1012.4 | |
| 20260507040025 | 7 | 0.0 | 0.0 | 0.00 | 0.97 | 0.00 | 88 | 1012.3 | |
| 20260507034522 | 7 | 0.0 | 0.0 | 0.00 | 0.99 | 0.00 | 88 | 1012.2 | |
| 20260507033019 | 7 | 0.0 | 0.0 | 0.00 | 0.99 | 0.00 | 88 | 1012.3 | |
| 20260507031511 | 7 | 0.0 | 0.0 | 0.00 | 0.99 | 0.00 | 88 | 1012.1 | |
| 20260507030008 | 7 | 0.0 | 0.0 | 0.00 | 0.99 | 0.00 | 88 | 1012.0 | |
| 20260507024506 | 7 | 0.0 | 0.0 | 0.00 | 0.99 | 0.00 | 88 | 1011.8 | |
| 20260507023102 | 7 | 0.0 | 0.0 | 0.00 | 0.99 | 0.00 | 88 | 1011.8 | |
| 20260507021558 | 7 | 0.0 | 0.0 | 0.00 | 0.99 | 0.00 | 88 | 1011.8 | |
| 20260507020059 | 7 | 0.0 | 0.0 | 0.00 | 0.99 | 0.00 | 88 | 1011.6 | |
| 20260507014555 | 7 | 0.0 | 0.0 | 0.00 | 0.99 | 0.00 | 88 | 1011.5 | |
| 20260507013043 | 7 | 0.0 | 0.0 | 0.00 | 0.99 | 0.00 | 88 | 1011.4 | |
| 20260507011546 | 7 | 0.0 | 0.0 | 0.00 | 0.99 | 0.00 | 88 | 1011.4 | |
| 20260507010041 | 7 | 0.0 | 0.0 | 0.00 | 0.99 | 0.00 | 89 | 1011.4 | |
| 20260507004532 | 7 | 0.0 | 0.0 | 0.00 | 0.99 | 0.00 | 89 | 1011.2 | |
| 20260507003026 | 7 | 0.0 | 0.0 | 0.00 | 0.99 | 0.00 | 89 | 1011.1 | |
| 20260507001526 | 8 | 0.0 | 0.0 | 0.00 | 0.99 | 0.00 | 89 | 1011.0 | |
| 20260507000018 | 8 | 0.0 | 0.0 | 0.00 | 0.99 | 0.00 | 89 | 1010.9 | |
| 20260506234512 | 8 | 0.0 | 0.0 | 0.00 | 0.99 | 0.00 | 89 | 1010.8 | |
| 20260506233008 | 8 | 0.0 | 0.0 | 0.00 | 0.99 | 0.00 | 89 | 1010.7 | |
| 20260506231504 | 8 | 0.0 | 0.0 | 0.00 | 0.99 | 0.00 | 89 | 1010.8 | |
| 20260506230107 | 8 | 0.0 | 0.0 | 0.00 | 0.99 | 0.00 | 89 | 1010.7 | |
| 20260506224600 | 8 | 0.0 | 0.0 | 0.00 | 0.99 | 0.00 | 89 | 1010.7 | |
| 20260506223051 | 8 | 0.0 | 0.0 | 0.00 | 0.99 | 0.00 | 89 | 1010.5 | |
| 20260506221547 | 8 | 0.0 | 0.0 | 0.00 | 0.99 | 0.00 | 90 | 1010.3 | |
| 20260506220043 | 8 | 0.0 | 0.0 | 0.00 | 0.99 | 0.00 | 90 | 1010.3 | |
| 20260506214540 | 9 | 0.0 | 0.0 | 0.00 | 0.99 | 0.99 | 89 | 1010.2 | |
| 20260506213037 | 9 | 0.0 | 0.0 | 0.03 | 0.99 | 0.99 | 90 | 1010.2 | |
| 20260506211529 | 9 | 0.0 | 0.0 | 0.03 | 0.99 | 0.99 | 90 | 1010.1 | |
| 20260506210031 | 9 | 0.0 | 0.0 | 0.03 | 0.99 | 0.99 | 89 | 1010.0 | |
| 20260506204521 | 9 | 0.0 | 0.0 | 0.03 | 0.99 | 0.99 | 90 | 1009.9 | |
| 20260506203016 | 10 | 0.0 | 0.0 | 0.00 | 0.97 | 0.97 | 90 | 1010.0 | |
| 20260506201512 | 10 | 0.0 | 0.0 | 0.00 | 0.97 | 0.97 | 89 | 1009.9 | |
| 20260506200007 | 10 | 0.0 | 0.0 | 0.00 | 0.97 | 0.97 | 89 | 1009.6 | |
| 20260506194505 | 10 | 0.0 | 0.0 | 0.00 | 0.97 | 0.97 | 89 | 1009.6 | |
| 20260506193058 | 10 | 0.0 | 0.0 | 0.00 | 0.97 | 0.97 | 89 | 1009.3 | |
| 20260506191555 | 10 | 0.0 | 0.0 | 0.00 | 0.97 | 0.97 | 89 | 1009.3 | |
| 20260506190054 | 10 | 0.0 | 0.0 | 0.00 | 0.97 | 0.97 | 89 | 1009.1 | |
| 20260506184550 | 10 | 0.0 | 0.0 | 0.00 | 0.97 | 0.97 | 89 | 1008.9 | |
| 20260506183040 | 10 | 0.0 | 0.0 | 0.00 | 0.97 | 0.97 | 89 | 1008.9 | |
| 20260506181537 | 10 | 0.0 | 0.0 | 0.00 | 0.97 | 0.97 | 89 | 1008.7 | |
| 20260506180032 | 10 | 0.0 | 0.0 | 0.00 | 0.97 | 0.97 | 89 | 1008.7 | |
| 20260506174529 | 10 | 0.0 | 0.0 | 0.00 | 0.97 | 0.97 | 89 | 1008.7 | |
| 20260506173030 | 10 | 0.0 | 0.0 | 0.00 | 0.97 | 0.97 | 89 | 1008.6 | |
| 20260506171520 | 11 | 0.0 | 0.0 | 0.00 | 0.97 | 0.97 | 89 | 1008.5 | |
| 20260506170016 | 11 | 0.0 | 0.0 | 0.00 | 0.97 | 0.97 | 89 | 1008.4 | |
| 20260506164510 | 11 | 0.0 | 0.0 | 0.00 | 0.97 | 0.97 | 89 | 1008.3 | |
| 20260506163006 | 11 | 0.0 | 0.0 | 0.03 | 0.97 | 0.97 | 89 | 1008.4 | |
| 20260506161501 | 11 | 0.0 | 0.0 | 0.03 | 0.97 | 0.97 | 89 | 1008.2 | |
| 20260506160108 | 11 | 0.0 | 0.0 | 0.03 | 0.97 | 0.97 | 89 | 1008.2 | |
| 20260506154555 | 11 | 0.0 | 0.0 | 0.05 | 0.97 | 0.97 | 89 | 1008.2 | |
| 20260506153056 | 11 | 0.0 | 0.0 | 0.05 | 0.94 | 0.94 | 89 | 1008.1 | |
| 20260506151548 | 12 | 0.0 | 0.0 | 0.05 | 0.94 | 0.94 | 89 | 1008.3 | |
| 20260506150043 | 11 | 0.0 | 0.0 | 0.05 | 0.94 | 0.94 | 89 | 1008.1 | |
| 20260506144540 | 12 | 0.0 | 0.0 | 0.03 | 0.91 | 0.91 | 89 | 1008.2 | |
| 20260506143036 | 12 | 0.0 | 0.0 | 0.00 | 0.89 | 0.89 | 89 | 1008.2 | |
| 20260506141530 | 11 | 0.0 | 0.0 | 0.00 | 0.89 | 0.89 | 89 | 1008.1 | |
| 20260506140023 | 11 | 0.0 | 0.0 | 0.03 | 0.89 | 0.89 | 89 | 1008.1 | |
| 20260506134518 | 11 | 0.0 | 0.0 | 0.05 | 0.89 | 0.89 | 89 | 1008.0 | |
| 20260506133015 | 11 | 0.0 | 0.0 | 0.05 | 0.89 | 0.89 | 88 | 1008.1 | |
| 20260506131511 | 11 | 0.0 | 0.0 | 0.05 | 0.89 | 0.89 | 88 | 1007.9 | |
| 20260506130005 | 11 | 0.0 | 0.0 | 0.05 | 0.89 | 0.89 | 88 | 1008.1 | |
| 20260506124603 | 11 | 0.0 | 0.0 | 0.05 | 0.86 | 0.86 | 88 | 1008.1 | |
| 20260506123056 | 11 | 0.0 | 0.0 | 0.05 | 0.86 | 0.86 | 88 | 1008.1 | |
| 20260506121552 | 11 | 0.0 | 0.0 | 0.08 | 0.86 | 0.86 | 88 | 1008.0 | |
| 20260506120047 | 11 | 0.0 | 0.0 | 0.05 | 0.81 | 0.81 | 88 | 1007.9 |